Stations météo

réclame
Mon MeteoGroup
Cognac, France (7412): Température de l'air & dewpoint: 15.06.2018 12:00:00 - 21.06.2018 12:00:00 (CEST)Cognac, France (7412): Température de l'air 5cm: 15.06.2018 12:00:00 - 21.06.2018 12:00:00 (CEST)Cognac, France (7412): Température de l'air -20cm & Température de l'air -100cm: 15.06.2018 12:00:00 - 21.06.2018 12:00:00 (CEST)Cognac, France (7412): Vitesse du vent & gusts: 15.06.2018 12:00:00 - 21.06.2018 12:00:00 (CEST)Cognac, France (7412): Direction du vent: 15.06.2018 12:00:00 - 21.06.2018 12:00:00 (CEST)Cognac, France (7412): reduced air pressure: 15.06.2018 12:00:00 - 21.06.2018 12:00:00 (CEST)Cognac, France (7412): visibility: 15.06.2018 12:00:00 - 21.06.2018 12:00:00 (CEST)Cognac, France (7412): Ensoleillement: 15.06.2018 12:00:00 - 21.06.2018 12:00:00 (CEST)Cognac, France (7412): Quantités de précipitations: 15.06.2018 12:00:00 - 21.06.2018 12:00:00 (CEST)
Date & Time tt [°C] td [°C] tt 5cm [°C] tt -20cm [°C] tt -100cm [°C] ff [km/h] ff [knt] fx [km/h] fx [knt] dd ppp [hPa] vv [km] sd [min] rr [mm]
21.06.2018 12:00:00 27,5 16,8 31,7 21,3 18,3 16 8 24 13 NNE 1019,5 54 60 0,0
21.06.2018 11:00:00 26,4 16,9 29,3 21,3 18,3 16 9 29 16 NNE 1019,5 57 60 0,0
21.06.2018 10:00:00 24,4 16,1 26,3 21,3 18,4 14 8 22 12 NNE 1019,3 54 60 0,0
21.06.2018 09:00:00 22,1 15,2 22,8 21,4 18,3 9 5 17 9 NE 1019,4 39 48 0,0
21.06.2018 08:00:00 21,5 14,6 21,2 21,4 18,3 5 3 16 9 NNE 1019,2 36 60 0,0
21.06.2018 07:00:00 20,7 14,8 18,3 21,4 18,3 5 3 11 6 N 1018,8 38 22 0,0
21.06.2018 06:00:00 20,2 15,0 18,9 21,4 18,3 7 4 14 7 N 1018,1 19 0 0,0
21.06.2018 05:00:00 20,7 15,3 18,8 21,5 18,3 0 0 5 3 N 1017,7 60 0 0,0
21.06.2018 04:00:00 21,7 15,3 19,9 21,4 18,3 3 2 5 3 NNE 1017,8 60 0 0,0
21.06.2018 03:00:00 22,6 15,2 20,9 21,4 18,3 5 3 11 6 N 1018,0 60 0 0,0
21.06.2018 02:00:00 23,1 15,9 20,4 21,4 18,3 4 2 7 4 N 1018,3 60 0 0,0
21.06.2018 01:00:00 24,0 16,5 21,7 21,3 18,3 3 1 8 4 NNE 1018,4 60 0 0,0
21.06.2018 00:00:00 25,3 17,2 23,5 21,3 18,3 4 2 14 8 N 1018,4 60 0 0,0
20.06.2018 23:00:00 26,8 17,0 25,1 21,2 18,3 11 6 15 8 N 1018,1 60 0 0,0
20.06.2018 22:00:00 28,6 16,8 26,4 21,1 18,3 10 5 15 8 N 1017,3 60 0 0,0
20.06.2018 21:00:00 30,5 16,1 28,7 20,9 18,3 11 6 16 9 NNE 1016,9 42 58 0,0
20.06.2018 20:00:00 31,6 16,0 32,8 20,8 18,3 0 0 11 6 N 1017,0 51 55 0,0
20.06.2018 19:00:00 32,3 14,4 32,8 20,7 18,3 7 4 20 11 N 1017,0 55 57 0,0
20.06.2018 18:00:00 31,9 14,5 32,9 20,5 18,2 10 6 20 11 N 1017,2 47 53 0,0
20.06.2018 17:00:00 32,2 14,3 36,0 20,4 18,2 6 4 18 10 ENE 1017,4 30 60 0,0
20.06.2018 16:00:00 31,8 14,4 36,6 20,2 18,2 8 4 15 8 NNE 1017,8 32 60 0,0
20.06.2018 15:00:00 31,4 16,2 36,9 20,1 18,2 3 2 15 8 SW 1018,1 12 60 0,0
20.06.2018 14:00:00 30,1 17,2 35,7 20,1 18,2 6 4 19 10 ESE 1018,4 52 60 0,0
20.06.2018 13:00:00 28,4 17,9 34,1 20,1 18,2 8 5 18 10 E 1018,9 48 60 0,0
20.06.2018 12:00:00 27,2 17,9 32,2 20,1 18,2 4 2 11 6 E 1019,3 60 60 0,0
20.06.2018 11:00:00 25,8 17,7 30,2 20,1 18,2 7 4 16 9 E 1019,2 37 60 0,0
20.06.2018 10:00:00 24,0 17,7 26,6 20,1 18,2 9 5 19 10 ENE 1019,4 44 60 0,0
20.06.2018 09:00:00 22,1 17,2 23,3 20,1 18,2 11 6 17 9 ENE 1019,4 34 60 0,0
20.06.2018 08:00:00 20,0 17,2 19,4 20,2 18,2 6 3 9 5 ENE 1019,4 33 60 0,0
20.06.2018 07:00:00 18,7 16,7 17,0 20,2 18,2 7 4 9 5 ENE 1019,3 60 23 0,0
20.06.2018 06:00:00 18,5 16,7 17,1 20,2 18,2 5 3 11 6 NNE 1019,4 29 0 0,0
20.06.2018 05:00:00 19,1 17,1 18,0 20,2 18,2 7 4 15 8 NNE 1019,5 30 0 0,0
20.06.2018 04:00:00 19,7 17,3 18,6 20,2 18,2 10 5 15 8 NNE 1019,7 34 0 0,0
20.06.2018 03:00:00 20,2 17,4 19,1 20,2 18,2 8 4 13 7 NNE 1020,0 43 0 0,0
20.06.2018 02:00:00 20,9 17,5 19,7 20,2 18,2 11 6 25 13 NNE 1020,3 53 0 0,0
20.06.2018 01:00:00 21,6 17,6 20,6 20,1 18,2 16 9 26 14 NNE 1020,5 60 0 0,0
20.06.2018 00:00:00 22,0 18,0 20,9 20,0 18,2 16 8 25 13 N 1020,7 60 0 0,0
19.06.2018 23:00:00 23,3 18,2 22,1 20,0 18,2 15 8 22 12 N 1020,8 60 0 0,0
19.06.2018 22:00:00 24,9 17,9 23,4 19,9 18,2 11 6 18 10 N 1020,6 60 0 0,0
19.06.2018 21:00:00 26,6 16,8 25,3 19,8 18,2 11 6 27 15 NNE 1020,8 43 57 0,0
19.06.2018 20:00:00 27,6 16,6 28,8 19,7 18,2 17 9 31 17 NNE 1021,0 35 60 0,0
19.06.2018 19:00:00 27,8 16,7 29,5 19,6 18,2 18 10 30 16 NNE 1021,3 33 58 0,0
19.06.2018 18:00:00 27,8 16,4 30,4 19,5 18,2 16 9 31 17 NNE 1021,8 36 60 0,0
19.06.2018 17:00:00 28,0 16,3 29,2 19,3 18,2 19 10 32 17 NNE 1022,4 41 58 0,0
19.06.2018 16:00:00 27,4 15,4 32,0 19,3 18,2 16 9 48 26 NNE 1022,9 42 60 0,0
19.06.2018 15:00:00 26,8 15,2 28,9 19,2 18,2 16 9 26 14 NE 1023,3 47 52 0,0
19.06.2018 14:00:00 25,9 15,3 29,0 19,2 18,2 13 7 25 14 NE 1023,9 45 44 0,0
19.06.2018 13:00:00 24,7 15,3 26,0 19,2 18,2 6 3 23 13 E 1024,6 46 48 0,0
19.06.2018 12:00:00 23,7 15,2 25,9 19,3 18,2 9 5 19 11 ENE 1025,0 18 54 0,0
19.06.2018 11:00:00 22,1 16,1 27,9 19,3 18,2 10 5 17 9 NNE 1025,5 19 58 0,0
19.06.2018 10:00:00 20,2 15,8 24,7 19,4 18,2 6 4 14 8 ENE 1026,1 19 60 0,0
19.06.2018 09:00:00 18,3 14,8 21,2 19,4 18,2 6 3 10 5 NE 1026,1 28 60 0,0
19.06.2018 08:00:00 16,3 14,8 14,9 19,5 18,2 3 2 6 3 E 1026,3 12 60 0,0
19.06.2018 07:00:00 13,5 12,9 10,6 19,5 18,2 3 2 6 3 WNW 1026,4 2,9 23 0,0
19.06.2018 06:00:00 13,0 12,4 9,7 19,6 18,2 0 0 4 2 N 1026,2 15 0 0,0
19.06.2018 05:00:00 13,5 12,7 10,2 19,6 18,2 0 0 4 2 N 1026,2 14 0 0,0
19.06.2018 04:00:00 14,0 13,2 10,4 19,6 18,2 3 2 5 3 WSW 1026,1 8 0 0,0
19.06.2018 03:00:00 14,2 13,1 10,7 19,6 18,2 2 1 5 3 W 1026,0 7 0 0,0
19.06.2018 02:00:00 15,0 13,7 12,4 19,6 18,2 4 2 7 4 WSW 1026,2 12 0 0,0
19.06.2018 01:00:00 15,7 13,9 13,2 19,6 18,2 6 3 10 5 WSW 1026,3 21 0 0,0
19.06.2018 00:00:00 16,6 14,1 13,9 19,5 18,2 8 4 12 6 W 1026,4 37 0 0,0
18.06.2018 23:00:00 17,7 14,2 14,7 19,5 18,2 8 4 13 7 WNW 1026,2 52 0 0,0
18.06.2018 22:00:00 19,2 14,5 16,3 19,5 18,2 9 5 16 9 W 1025,5 60 0 0,0
18.06.2018 21:00:00 20,8 14,2 19,0 19,4 18,2 14 8 20 11 W 1025,4 41 57 0,0
18.06.2018 20:00:00 22,1 14,7 23,1 19,3 18,2 13 7 23 12 WNW 1025,2 41 60 0,0
18.06.2018 19:00:00 22,2 14,8 25,1 19,3 18,1 16 8 25 13 WNW 1025,1 32 50 0,0
18.06.2018 18:00:00 22,6 14,9 23,5 19,2 18,2 14 8 22 12 W 1025,2 35 25 0,0
18.06.2018 17:00:00 22,3 15,4 25,7 19,2 18,2 9 5 20 11 WNW 1025,3 41 10 0,0
18.06.2018 16:00:00 21,9 15,3 23,1 19,2 18,2 9 5 28 15 WNW 1025,5 46 9 0,0
18.06.2018 15:00:00 21,5 15,1 24,8 19,1 18,2 13 7 25 14 W 1025,7 55 0 0,0
18.06.2018 14:00:00 20,8 15,1 24,5 19,1 18,2 14 8 24 13 W 1025,7 40 0 0,2
18.06.2018 13:00:00 20,6 15,2 23,6 19,2 18,1 13 7 22 12 NW 1025,6 41 0 0,0
18.06.2018 12:00:00 20,6 15,8 22,3 19,2 18,2 10 5 21 11 W 1025,4 45 27 0,0
18.06.2018 11:00:00 18,6 17,1 18,0 19,2 18,2 8 4 28 15 WNW 1025,6 41 2 0,8
18.06.2018 10:00:00 18,1 16,9 18,3 19,2 18,2 10 5 16 9 SSW 1025,5 5 0 0,0
18.06.2018 09:00:00 17,5 16,4 17,3 19,3 18,2 11 6 16 9 SW 1025,3 44 5 0,2
18.06.2018 08:00:00 16,4 15,8 16,3 19,3 18,1 8 5 15 8 SW 1025,1 19 0 0,4
18.06.2018 07:00:00 16,3 15,7 15,8 19,3 18,1 9 5 14 8 SSW 1024,9 2,7 0 0,4
18.06.2018 06:00:00 16,1 15,1 15,6 19,4 18,2 8 5 15 8 SSW 1024,7 4,2 0 0,0
18.06.2018 05:00:00 16,2 14,4 15,6 19,4 18,2 10 5 15 8 SW 1024,5 24 0 0,0
18.06.2018 04:00:00 16,2 13,9 15,4 19,5 18,2 7 4 10 6 SSW 1024,7 32 0 0,0
18.06.2018 03:00:00 16,0 13,3 15,1 19,5 18,2 5 3 8 5 SW 1024,9 29 0 0,0
18.06.2018 02:00:00 15,9 12,8 14,7 19,5 18,2 5 3 11 6 WSW 1025,1 37 0 0,0
18.06.2018 01:00:00 15,7 12,6 13,9 19,5 18,2 7 4 10 6 WSW 1025,4 40 0 0,0
18.06.2018 00:00:00 15,5 12,3 13,4 19,5 18,2 4 2 8 5 WSW 1025,6 41 0 0,0
17.06.2018 23:00:00 16,2 12,0 13,7 19,4 18,2 6 3 13 7 WSW 1025,4 42 0 0,0
17.06.2018 22:00:00 17,3 11,6 15,2 19,4 18,2 11 6 27 14 W 1024,8 51 15 0,0
17.06.2018 21:00:00 18,4 11,2 17,5 19,3 18,1 17 9 28 15 W 1024,6 37 40 0,0
17.06.2018 20:00:00 19,9 10,9 19,6 19,3 18,2 20 11 32 18 WNW 1024,3 30 58 0,0
17.06.2018 19:00:00 21,0 11,3 22,0 19,2 18,2 21 11 29 16 W 1024,2 34 58 0,0
17.06.2018 18:00:00 21,4 11,4 22,9 19,1 18,2 22 12 46 25 WSW 1024,0 44 38 0,0
17.06.2018 17:00:00 21,3 11,0 23,3 19,1 18,2 24 13 40 22 W 1023,8 19 55 0,0
17.06.2018 16:00:00 21,4 11,7 23,9 19,0 18,2 25 13 39 21 W 1023,9 26 43 0,0
17.06.2018 15:00:00 21,9 11,3 23,7 19,0 18,2 24 13 38 20 W 1023,3 32 40 0,0
17.06.2018 14:00:00 21,1 12,0 24,6 19,0 18,2 14 8 24 13 W 1023,4 35 41 0,0
17.06.2018 13:00:00 21,0 11,9 25,6 19,0 18,2 14 7 25 14 W 1023,5 38 33 0,0
17.06.2018 12:00:00 20,1 12,3 23,3 19,0 18,1 10 5 19 10 W 1023,7 38 39 0,0
17.06.2018 11:00:00 18,5 12,3 20,0 19,1 18,2 8 4 15 8 NW 1023,7 41 2 0,0
17.06.2018 10:00:00 18,2 13,9 19,7 19,1 18,2 11 6 17 9 NNW 1023,6 44 1 0,0
17.06.2018 09:00:00 17,1 14,6 15,9 19,2 18,2 13 7 18 10 WSW 1023,2 45 9 0,0
17.06.2018 08:00:00 16,1 14,5 15,3 19,2 18,2 11 6 16 9 SSW 1022,5 32 0 0,0
17.06.2018 07:00:00 15,4 13,8 13,6 19,2 18,2 6 3 8 4 SSW 1022,4 28 0 0,0
17.06.2018 06:00:00 15,1 13,5 13,2 19,3 18,2 3 2 11 6 ENE 1022,0 9 0 0,0
17.06.2018 05:00:00 15,4 13,4 14,2 19,3 18,1 5 3 8 4 SW 1021,9 30 0 0,0
17.06.2018 04:00:00 15,2 13,0 14,3 19,3 18,2 3 2 10 5 SW 1021,8 35 0 0,0
17.06.2018 03:00:00 15,2 13,0 14,2 19,3 18,2 6 4 9 5 WSW 1021,9 38 0 0,0
17.06.2018 02:00:00 15,3 12,8 14,3 19,4 18,2 6 3 8 4 W 1021,9 35 0 0,0
17.06.2018 01:00:00 15,3 12,6 13,5 19,4 18,2 8 4 10 5 WSW 1022,1 18 0 0,0
17.06.2018 00:00:00 15,5 12,3 13,3 19,3 18,2 6 3 9 5 WSW 1022,0 44 0 0,0
16.06.2018 23:00:00 16,4 11,8 13,7 19,3 18,2 8 4 20 11 W 1021,9 55 0 0,0
16.06.2018 22:00:00 17,8 11,4 16,7 19,3 18,2 14 7 22 12 WNW 1021,3 59 10 0,0
16.06.2018 21:00:00 18,4 11,5 17,7 19,2 18,2 15 8 29 16 W 1020,7 51 0 0,0
16.06.2018 20:00:00 19,9 11,1 20,0 19,2 18,1 20 11 30 16 W 1020,5 59 31 0,0
16.06.2018 19:00:00 20,6 12,0 21,3 19,2 18,2 20 11 34 19 WNW 1019,8 25 42 0,0
16.06.2018 18:00:00 21,0 11,9 22,5 19,1 18,2 22 12 34 18 W 1019,6 30 45 0,0
16.06.2018 17:00:00 21,2 12,6 23,8 19,1 18,2 21 11 34 18 W 1019,4 27 38 0,0
16.06.2018 16:00:00 20,9 12,1 24,5 19,1 18,2 23 12 40 22 W 1019,4 32 41 0,0
16.06.2018 15:00:00 21,6 13,0 24,2 19,1 18,2 22 12 34 18 W 1019,2 36 26 0,0
16.06.2018 14:00:00 21,3 13,2 24,2 19,1 18,2 14 8 26 14 WNW 1019,2 26 14 0,0
16.06.2018 13:00:00 21,0 13,2 25,3 19,2 18,2 14 7 25 13 W 1019,4 24 16 0,0
16.06.2018 12:00:00 19,7 13,8 22,7 19,2 18,2 14 7 25 13 WNW 1019,3 35 4 0,0
16.06.2018 11:00:00 18,5 13,6 20,2 19,3 18,2 14 8 25 13 WNW 1019,3 21 10 0,0
16.06.2018 10:00:00 17,3 14,0 18,2 19,3 18,2 18 10 27 14 WNW 1019,1 45 0 0,0
16.06.2018 09:00:00 16,1 14,1 14,7 19,4 18,1 14 8 23 12 W 1018,6 19 0 0,0
16.06.2018 08:00:00 14,4 12,9 13,3 19,5 18,2 8 5 16 9 SSW 1018,2 26 0 0,0
16.06.2018 07:00:00 13,4 12,1 11,7 19,5 18,1 9 5 14 7 SSW 1018,0 20 0 0,0
16.06.2018 06:00:00 12,7 11,4 11,4 19,5 18,2 2 1 10 5 S 1017,8 20 0 0,0
16.06.2018 05:00:00 13,0 11,4 11,5 19,6 18,2 8 4 10 6 SSW 1018,0 30 0 0,0
16.06.2018 04:00:00 13,3 11,5 11,4 19,6 18,2 4 2 11 6 SSW 1018,2 29 0 0,0
16.06.2018 03:00:00 12,9 11,3 10,9 19,6 18,2 5 3 9 5 SW 1018,5 28 0 0,0
16.06.2018 02:00:00 13,4 11,8 11,3 19,6 18,2 4 2 7 4 SW 1018,8 27 0 0,0
16.06.2018 01:00:00 13,7 11,9 11,8 19,6 18,2 4 2 12 6 WSW 1018,9 22 0 0,0
16.06.2018 00:00:00 14,5 12,5 12,9 19,6 18,2 9 5 11 6 WSW 1018,9 25 0 0,0
15.06.2018 23:00:00 15,6 12,9 13,6 19,6 18,2 9 5 19 10 WSW 1019,0 28 0 0,0
15.06.2018 22:00:00 17,3 13,2 15,4 19,5 18,1 11 6 24 13 W 1018,7 32 0 0,0
15.06.2018 21:00:00 19,3 13,7 18,8 19,4 18,1 18 10 27 15 W 1018,3 42 40 0,0
15.06.2018 20:00:00 20,9 15,2 21,5 19,4 18,2 17 9 26 14 W 1017,7 34 48 0,0
15.06.2018 19:00:00 22,1 15,2 24,4 19,3 18,1 21 11 32 17 W 1017,7 45 57 0,0
15.06.2018 18:00:00 22,6 15,9 24,9 19,3 18,1 21 11 29 16 W 1017,7 58 44 0,0
15.06.2018 17:00:00 23,3 16,3 22,7 19,3 18,1 16 8 22 12 W 1017,8 20 30 0,0
15.06.2018 16:00:00 22,4 17,7 24,3 19,3 18,1 12 7 20 11 SSW 1018,0 56 29 0,0
15.06.2018 15:00:00 20,9 17,7 21,0 19,3 18,1 8 4 17 9 SW 1018,1 46 20 0,0
15.06.2018 14:00:00 18,8 17,6 19,1 19,3 18,1 10 5 22 12 W 1018,4 3,2 0 1,2
15.06.2018 13:00:00 18,7 17,0 19,0 19,3 18,1 11 6 18 10 S 1018,4 31 0 0,2
15.06.2018 12:00:00 17,5 16,7 17,8 19,4 18,1 11 6 19 10 S 1018,6 3,7 0 0,2

tt = Température de l'air
td = dewpoint
tt 5cm = Température de l'air 5cm
tt -20cm = Température de l'air -20cm
tt -100cm = Température de l'air -100cm
ff = Vitesse du vent
fx = gusts
dd = Direction du vent
ppp = reduced air pressure
vv = visibility
sd = Ensoleillement
rr = Quantités de précipitations

stations d'obs. à proximité